This is the latest recevied weather packets stored in our database for station/object WD7CGF. If no packets are shown the sender has not sent any weather packets the latest 10 day(s).
| Time | Temp. | Humidity | Pressure | Rain* | Wind** | Luminosity | Snow |
|---|---|---|---|---|---|---|---|
| 1777517898 | 17.22° C | 47% | 1020.4 hPa | 0 mm | - | - | - |
| 1777517302 | 17.78° C | 46% | 1020.4 hPa | 0 mm | - | - | - |
| 1777516708 | 18.33° C | 45% | 1020.3 hPa | 0 mm | - | - | - |
| 1777516093 | 18.33° C | 43% | 1020.2 hPa | 0 mm | - | - | - |
| 1777515503 | 18.89° C | 43% | 1020.2 hPa | 0 mm | - | - | - |
| 1777514911 | 18.89° C | 41% | 1019.6 hPa | 0 mm | - | - | - |
| 1777514301 | 19.44° C | 40% | 1019.7 hPa | 0 mm | - | - | - |
| 1777513713 | 19.44° C | 41% | 1019.7 hPa | 0 mm | - | - | - |
| 1777513104 | 19.44° C | 41% | 1019.7 hPa | 0 mm | - | - | - |
| 1777512511 | 19.44° C | 38% | 1019.8 hPa | 0 mm | - | - | - |
| 1777511909 | 20° C | 38% | 1019.8 hPa | 0 mm | - | - | - |
| 1777511297 | 20° C | 39% | 1019.9 hPa | 0 mm | - | - | - |
| 1777510705 | 20° C | 40% | 1020 hPa | 0 mm | - | - | - |
| 1777510113 | 20° C | 39% | 1020 hPa | 0 mm | - | - | - |
| 1777509497 | 20° C | 41% | 1019.8 hPa | 0 mm | - | - | - |
| 1777508906 | 20.56° C | 39% | 1019.7 hPa | 0 mm | - | - | - |
| 1777508315 | 20.56° C | 39% | 1019.7 hPa | 0 mm | - | - | - |
| 1777507703 | 20.56° C | 40% | 1019.7 hPa | 0 mm | - | - | - |
| 1777507095 | 20.56° C | 40% | 1019.8 hPa | 0 mm | - | - | - |
| 1777506508 | 20.56° C | 39% | 1019.8 hPa | 0 mm | - | - | - |
| 1777505908 | 20.56° C | 39% | 1019.9 hPa | 0 mm | - | - | - |
| 1777505297 | 20.56° C | 38% | 1020.1 hPa | 0 mm | - | - | - |
| 1777504701 | 20.56° C | 38% | 1020.1 hPa | 0 mm | - | - | - |
| 1777504106 | 20.56° C | 39% | 1020.9 hPa | 0 mm | - | - | - |
| 1777503514 | 20.56° C | 40% | 1021 hPa | 0 mm | - | - | - |
* Rain since midnight (hover to see other rain measurements)
** Current wind speed in m/s (hover to see current wind gust speed)